TimePDT,TemperatureF,Dew PointF,Humidity,Sea Level PressureIn,VisibilityMPH,Wind Direction,Wind SpeedMPH,Gust SpeedMPH,PrecipitationIn,Events,Conditions,WindDirDegrees,DateUTC
12:53 AM,48.0,46.0,93,30.14,8.0,Calm,Calm,-,N/A,,Clear,0,2013-10-20 07:53:00
1:53 AM,46.9,45.0,93,30.13,8.0,Calm,Calm,-,N/A,,Clear,0,2013-10-20 08:53:00
2:53 AM,46.0,44.1,93,30.13,8.0,Calm,Calm,-,N/A,,Clear,0,2013-10-20 09:53:00
3:01 AM,46.4,44.6,93,30.13,7.0,Calm,Calm,-,N/A,,Partly Cloudy,0,2013-10-20 10:01:00
3:16 AM,46.4,44.6,93,30.12,7.0,Calm,Calm,-,N/A,,Mostly Cloudy,0,2013-10-20 10:16:00
3:29 AM,46.4,44.6,93,30.12,1.8,Calm,Calm,-,N/A,,Overcast,0,2013-10-20 10:29:00
3:49 AM,46.4,46.4,100,30.12,0.5,Calm,Calm,-,N/A,Fog,Fog,0,2013-10-20 10:49:00
3:53 AM,46.0,46.0,100,30.12,0.5,Calm,Calm,-,N/A,Fog,Fog,0,2013-10-20 10:53:00
4:00 AM,46.4,46.4,100,30.12,0.2,Calm,Calm,-,N/A,Fog,Fog,0,2013-10-20 11:00:00
4:21 AM,46.4,46.4,100,30.12,1.0,Calm,Calm,-,N/A,,Mist,0,2013-10-20 11:21:00
4:36 AM,46.4,46.4,100,30.12,0.2,Calm,Calm,-,N/A,Fog,Fog,0,2013-10-20 11:36:00
4:53 AM,46.9,46.0,97,30.12,0.2,Calm,Calm,-,N/A,Fog,Fog,0,2013-10-20 11:53:00
5:27 AM,46.4,46.4,100,30.12,0.2,Calm,Calm,-,N/A,Fog,Fog,0,2013-10-20 12:27:00
5:53 AM,46.9,46.9,100,30.12,0.2,Calm,Calm,-,0.01,Fog,Fog,0,2013-10-20 12:53:00
6:07 AM,46.4,46.4,100,30.12,0.5,Calm,Calm,-,N/A,Fog,Fog,0,2013-10-20 13:07:00
6:17 AM,46.4,46.4,100,30.12,0.2,Calm,Calm,-,N/A,Fog,Fog,0,2013-10-20 13:17:00
6:53 AM,46.9,46.0,97,30.13,0.2,Calm,Calm,-,N/A,Fog,Fog,0,2013-10-20 13:53:00
7:53 AM,46.9,46.9,100,30.13,0.2,Calm,Calm,-,N/A,Fog,Fog,0,2013-10-20 14:53:00
8:53 AM,48.0,46.9,96,30.15,0.2,Calm,Calm,-,N/A,Fog,Fog,0,2013-10-20 15:53:00
9:05 AM,46.4,46.4,100,30.14,0.8,Calm,Calm,-,N/A,,Overcast,0,2013-10-20 16:05:00
9:53 AM,48.0,46.9,96,30.15,0.5,SE,3.5,-,N/A,Fog,Fog,140,2013-10-20 16:53:00
10:15 AM,48.2,48.2,100,30.14,1.0,Calm,Calm,-,N/A,,Overcast,0,2013-10-20 17:15:00
10:53 AM,48.9,48.0,97,30.14,1.5,Calm,Calm,-,N/A,,Overcast,0,2013-10-20 17:53:00
11:05 AM,48.2,48.2,100,30.14,2.0,Calm,Calm,-,N/A,,Overcast,0,2013-10-20 18:05:00
11:36 AM,50.0,48.2,94,30.13,4.0,SW,3.5,-,N/A,,Overcast,220,2013-10-20 18:36:00
11:53 AM,50.0,48.9,96,30.14,3.0,Calm,Calm,-,N/A,,Overcast,0,2013-10-20 18:53:00
12:53 PM,55.0,50.0,83,30.12,7.0,Calm,Calm,-,N/A,,Scattered Clouds,0,2013-10-20 19:53:00
1:53 PM,62.1,51.1,67,30.08,10.0,Calm,Calm,-,N/A,,Clear,0,2013-10-20 20:53:00
2:53 PM,64.9,52.0,63,30.06,10.0,Variable,3.5,-,N/A,,Clear,0,2013-10-20 21:53:00
3:53 PM,68.0,52.0,56,30.05,10.0,Calm,Calm,-,N/A,,Clear,0,2013-10-20 22:53:00
4:53 PM,69.1,51.1,53,30.04,10.0,NNW,5.8,-,N/A,,Clear,330,2013-10-20 23:53:00
5:53 PM,66.9,52.0,59,30.04,10.0,Calm,Calm,-,N/A,,Clear,0,2013-10-21 00:53:00
6:53 PM,62.1,52.0,70,30.04,10.0,Calm,Calm,-,N/A,,Clear,0,2013-10-21 01:53:00
7:53 PM,55.9,50.0,80,30.04,10.0,Calm,Calm,-,N/A,,Clear,0,2013-10-21 02:53:00
8:53 PM,53.1,48.9,86,30.05,9.0,Calm,Calm,-,N/A,,Clear,0,2013-10-21 03:53:00
9:53 PM,52.0,48.0,86,30.06,10.0,Calm,Calm,-,N/A,,Clear,0,2013-10-21 04:53:00
10:53 PM,50.0,46.9,89,30.07,10.0,Calm,Calm,-,N/A,,Clear,0,2013-10-21 05:53:00
11:53 PM,48.9,46.0,90,30.07,10.0,Calm,Calm,-,N/A,,Clear,0,2013-10-21 06:53:00